Flag for Argentina Weather past 2 weeks in Bahía Blanca, Buenos Aires, Argentina

Now
61 °F

Sunny.


Feels Like: 61 °F
Forecast: 69 / 94 °F
Wind: 6 mph from Northeast

Location: Mar Del Plata Aerodrome

Current Time: Jan 31, 2015 at 9:00:44 AM

Latest Report: Jan 31, 2015 at 8:00 AM


Visibility: 10 mi

Pressure: 30.15 "Hg

Humidity: 83%

Dew point: 55 °F

Location of Bahía BlancaLocation

Historic Weather in Bahía Blanca — Graph

°F

Bahía Blanca temperature yesterday

Maximum temperature yesterday: 68 °F (at 11:00 AM)
Minimum temperature yesterday: 45 °F (at 4:00 AM)
Average temperature yesterday: 59 °F

Past Weeks' High & Low Weather Summary

 TemperatureHumidityPressure
High93 °F (Jan 27, 2:00 PM)100% (Jan 16, 8:00 PM)30.24 "Hg (Jan 16, 8:00 PM)
Low45 °F (Jan 30, 4:00 AM)27% (Jan 28, 12:00 PM)29.62 "Hg (Jan 26, 7:00 PM)
Average67 °F72%29.98 "Hg
* Reported Jan 16 8:00 AM — Jan 31 8:00 AM, Bahía Blanca, Weather by CustomWeather, © 2014

Note: Actual official high and low records may vary slightly from our data, if they occured in-between our weather recording intervals... More about our weather records

Advertising

Bahía Blanca weather history for previous 24 hours

 ConditionsComfort  
Time TempWeatherWind HumidityBarometerVisibility
8:00 AM
Jan 31
61 °FSunny.6 mph83%30.15 "Hg10 mi
7:00 AM54 °FSunny.No wind88%30.12 "Hg10 mi
6:00 AM48 °FClear.No wind94%30.12 "Hg5 mi
5:00 AM50 °FClear.No wind94%30.12 "Hg10 mi
4:00 AM54 °FClear.3 mph88%30.12 "Hg10 mi
3:00 AM54 °FClear.No wind88%30.12 "Hg10 mi
2:00 AM54 °FClear.3 mph88%30.12 "Hg10 mi
1:00 AM55 °FClear.3 mph82%30.15 "Hg10 mi
12:00 AM57 °FClear.7 mph77%30.15 "Hg10 mi
11:00 PM
Jan 30
57 °FClear.3 mph77%30.15 "Hg10 mi
10:00 PM59 °FClear.3 mph68%30.12 "Hg10 mi
9:00 PM61 °FClear.7 mph68%30.12 "Hg10 mi
8:00 PM64 °FClear.12 mph56%30.09 "Hg10 mi
7:00 PM66 °FSunny.12 mph56%30.12 "Hg10 mi
6:00 PM66 °FPassing clouds.12 mph60%30.12 "HgN/A
5:00 PM68 °FPassing clouds.10 mph46%30.12 "HgN/A
4:00 PM68 °FPassing clouds.13 mph60%30.15 "HgN/A
3:00 PM68 °FPassing clouds.9 mph60%30.15 "HgN/A
2:00 PM68 °FPassing clouds.12 mph60%30.15 "HgN/A
1:00 PM68 °FPassing clouds.12 mph60%30.18 "HgN/A
11:00 AM68 °FPassing clouds.No wind60%30.18 "HgN/A
10:00 AM64 °FPassing clouds.No wind56%30.18 "HgN/A
9:00 AM63 °FPassing clouds.No wind68%30.18 "HgN/A
Weather by CustomWeather, © 2014

See weather overviewHow to use our weather pages